Weather History for Cozumel, Mexico

Change the Weather History Date:

Friday, November 22, 2013

  Actual Average Record
Temperature  
Mean Temperature 76 °F -  
Max Temperature 82 °F 82 °F 86 °F (1996)
Min Temperature 68 °F 72 °F 66 °F (2006)
Cooling Degree Days 10    
Growing Degree Days 26 (Base 50)    
Moisture  
Dew Point 71 °F    
Average Humidity 89    
Maximum Humidity 100    
Minimum Humidity 70    
Precipitation  
Precipitation 0.00 in - - ()
Sea Level Pressure  
Sea Level Pressure 30.00 in    
Wind  
Wind Speed 4 mph ()    
Max Wind Speed 14 mph    
Max Gust Speed -    
Visibility 7.3 miles    
Events Rain    
Averages and records for this station are not official NWS values.
T = Trace of Precipitation, MM = Missing Value Source: Averaged Metar Reports

Daily Weather History Graph

Daily Weather History Graph

Search for Another Location

Airport:

Trip Planner

Search our weather history database for the weather conditions in past years. The results will help you decide how hot, cold, wet, or windy it might be!

Date:

Astronomy

Nov. 22, 2013 Rise Set
Actual Time 6:01 AM CST 5:05 PM CST
Civil Twilight 5:38 AM CST 5:29 PM CST
Nautical Twilight 5:11 AM CST 5:56 PM CST
Astronomical Twilight 4:44 AM CST 6:23 PM CST
Moon 9:27 PM CST (11/22) 9:52 AM CST (11/22)
Length of Visible Light 11h 51m
Length of Day
11h 04m
Waning Gibbous, 78% of the Moon is Illuminated
Nov 22
Waning Gibbous
Nov 25
Last Quarter
Dec 2
New
Dec 9
First Quarter
Dec 17
Full

Hourly Weather History & Observations

Time (CST) Temp. Heat Index Dew Point Humidity Pressure Visibility Wind Dir Wind Speed Gust Speed Precip Events Conditions
12:45 AM 71.6 °F - 71.6 °F 100% 30.00 in 7.0 mi Calm Calm - N/A   Partly Cloudy
1:45 AM 69.8 °F - 69.8 °F 100% 29.99 in 7.0 mi Calm Calm - N/A   Partly Cloudy
2:49 AM 69.8 °F - 69.8 °F 100% 30.01 in 7.0 mi ENE 4.6 mph - N/A   Scattered Clouds
3:46 AM 69.8 °F - 69.8 °F 100% 29.98 in 7.0 mi East 4.6 mph - N/A   Scattered Clouds
4:46 AM 71.6 °F - 71.6 °F 100% 29.98 in 7.0 mi East 3.5 mph - N/A   Mostly Cloudy
5:51 AM 71.6 °F - 71.6 °F 100% 29.98 in 7.0 mi ENE 3.5 mph - N/A   Scattered Clouds
6:43 AM 73.4 °F - 71.6 °F 94% 30.01 in 8.0 mi East 4.6 mph - N/A   Scattered Clouds
7:41 AM 75.2 °F - 71.6 °F 89% 30.02 in 8.0 mi East 8.1 mph - N/A   Scattered Clouds
8:40 AM 78.8 °F - 71.6 °F 78% 30.07 in 8.0 mi East 13.8 mph - N/A   Scattered Clouds
9:42 AM 80.6 °F 84.6 °F 71.6 °F 74% 30.05 in 8.0 mi East 8.1 mph - N/A   Scattered Clouds
10:45 AM 80.6 °F 84.6 °F 71.6 °F 74% 30.04 in 8.0 mi East 9.2 mph - N/A   Scattered Clouds
11:40 AM 82.4 °F 87.2 °F 71.6 °F 70% 30.01 in 8.0 mi East 13.8 mph - N/A   Scattered Clouds
12:44 PM 80.6 °F 83.9 °F 69.8 °F 70% 29.99 in 8.0 mi East 6.9 mph - N/A   Mostly Cloudy
1:41 PM 80.6 °F 84.6 °F 71.6 °F 74% 29.97 in 8.0 mi ENE 9.2 mph - N/A   Scattered Clouds
2:46 PM 80.6 °F 84.6 °F 71.6 °F 74% 29.99 in 8.0 mi ENE 8.1 mph - N/A   Scattered Clouds
3:41 PM 80.6 °F 84.6 °F 71.6 °F 74% 29.96 in 8.0 mi ENE 6.9 mph - N/A   Scattered Clouds
4:42 PM 77.0 °F - 73.4 °F 89% 29.97 in 8.0 mi Calm Calm - N/A   Scattered Clouds
5:43 PM 75.2 °F - 71.6 °F 89% 29.95 in 8.0 mi ENE 3.5 mph - N/A   Scattered Clouds
6:46 PM 75.2 °F - 71.6 °F 89% 29.98 in 7.0 mi ENE 3.5 mph - N/A   Scattered Clouds
7:42 PM 75.2 °F - 71.6 °F 89% 30.00 in 7.0 mi East 4.6 mph - N/A   Scattered Clouds
8:41 PM 73.4 °F - 71.6 °F 94% 30.04 in 7.0 mi East 4.6 mph - N/A   Scattered Clouds
9:42 PM 71.6 °F - 71.6 °F 100% 30.01 in 7.0 mi East 6.9 mph - N/A   Scattered Clouds
10:11 PM 71.6 °F - 71.6 °F 100% 30.02 in 5.0 mi East 9.2 mph - N/A Rain Light Rain
10:40 PM 69.8 °F - 69.8 °F 100% 30.02 in 5.0 mi ENE 5.8 mph - N/A Rain Light Rain
11:42 PM 68.0 °F - 68.0 °F 100% 29.96 in 7.0 mi Calm Calm - N/A   Mostly Cloudy